Retour au catalogue

DELTA 1 DEB

ActifSSO
NORAD 7200·DEBRIS·🇺🇸 United States

Lancé Nov 6, 1973 depuis Vandenberg Space Force Base

Loading…

Prochains Passages (prochaines 24 heures)

TLE

FraisSource: Space-Track

Époque: Sep 11, 2026, 20:55 UTC

1  7200U 73086FJ  26254.87176249  .00000401  00000-0  47336-2 0  9996
2  7200 102.3996 235.2683 0292055 203.9074 185.4336 12.01983052312724

Suivez DELTA 1 DEB en temps réel avec AllMySat

Download on the App Store